Regional Weather Roundup
Issued by NWS Northern Indiana

Home | Current Version | Previous Version | Text Only | Print | Product List | Glossary On
Versions: 1 2 3 4 5 6 7 8 9 10 11 12 13 14 15 16 17 18 19 20 21 22 23 24 25 26 27 28 29 30 31 32 33 34 35 36 37 38 39 40 41 42 43 44 45 46 47 48 49 50
000
ASUS43 KIWX 201110
RWRIWX

KIWX WEATHER ROUNDUP
NATIONAL WEATHER SERVICE NORTHERN INDIANA
600 AM EST SAT JAN 20 2018

NOTE: "FAIR" INDICATES FEW OR NO CLOUDS BELOW 12,000 FEET WITH NO
SIGNIFICANT WEATHER AND/OR OBSTRUCTIONS TO VISIBILITY.

* THESE STATIONS ARE NOT UNDER NWS QUALITY CONTROL. THEY ALSO MAY NOT
  REPORT WEATHER SUCH AS PRECIPITATION OR FOG.

INZ001>027-201200-
NORTHERN INDIANA

CITY           SKY/WX    TMP DP  RH WIND       PRES   REMARKS
GARY*          MOCLDY    34  27  75 SW14      29.87R WCI  24
VALPARAISO     FAIR      34  27  75 SW6       29.88R WCI  29
MICHIGAN CITY* FAIR      34  27  75 SW9       29.87S WCI  26
LAPORTE*       FAIR      29  25  84 SW6       29.89R WCI  23
KNOX*          FAIR      32  28  86 SW12      29.89R WCI  23
SOUTH BEND     FAIR      31  25  78 SW15      29.87R WCI  20
GOSHEN         FAIR      32  24  72 SW16G25   29.89R WCI  21
MONTICELLO*    FAIR      31  24  76 SW12      29.92R WCI  22
LOGANSPORT*    FAIR      30  25  80 SW12      29.94R WCI  21
ROCHESTER*     FAIR      34  28  80 SW8       29.92R WCI  27
WARSAW*        FAIR      32  27  80 SW7       29.90R WCI  26
AUBURN*        FAIR     N/A N/A N/A SW9G18    29.90R
FORT WAYNE     FAIR      33  25  72 SW17      29.92R WCI  22
HUNTINGTON*    FAIR      32  23  70 SW8       29.92S WCI  24
PERU/GRISSOM   MOCLDY    31  26  81 SW15      29.92R WCI  21
MARION*        FAIR      31  24  74 SW14G21   29.95R WCI  21

$$
INZ028>050-201200-
CENTRAL INDIANA

CITY           SKY/WX    TMP DP  RH WIND       PRES   REMARKS
LAFAYETTE      FAIR      32  25  75 SW9       29.95R WCI  24
MUNCIE*        FAIR      34  22  61 SW15      29.95R WCI  24
INDIANAPOLIS   FAIR      34  24  67 SW15      30.00R WCI  24

$$
MIZ043>046-050>051-056>058-064>065-071>073-077>080-201200-
SOUTHWEST LOWER MICHIGAN

CITY           SKY/WX    TMP DP  RH WIND       PRES   REMARKS
BATTLE CREEK   FAIR      32  25  75 SW12      29.83R WCI  23
BENTON HARBOR  FAIR      38  27  64 SW17G24   29.85R
COLDWATER*     FAIR      32  25  76 SW10      29.85R WCI  24
HILLSDALE*     FAIR      34  25  69 W13G20    29.83R WCI  25
HOLLAND        FAIR      37  30  75 SW14      29.82R
GRAND RAPIDS   MOCLDY    36  28  73 SW14      29.81R
KALAMAZOO      FAIR      34  25  69 SW9       29.85R WCI  27
STURGIS*       FAIR      31  25  78 SW10      29.86R WCI  22
THREE RIVERS*  FAIR      34  26  72 SW7       29.86R WCI  28

$$
OHZ001>008-015>018-024>025-201200-
NORTHWEST OHIO

CITY           SKY/WX    TMP DP  RH WIND       PRES   REMARKS
WAUSEON*       FAIR      32  27  80 SW12G18   29.88R WCI  23
DEFIANCE       FAIR      32  23  69 SW12      29.90R WCI  23
FINDLAY        FAIR      34  23  64 SW13      29.91R WCI  25
TOLEDO EXPRESS FAIR      34  25  69 SW15      29.88R WCI  24
TOLEDO METCALF FAIR      32  24  72 SW14      29.89R WCI  22
LIMA           FAIR      33  24  69 SW16      29.93R WCI  23

$$
AND FOR LAKE MICHIGAN COASTAL AND OPEN LAKE BUOY OBSERVATIONS

STATION/POSITION TEMP    WIND        PRES    VSBY  WAVE
                 AIR SEA DIR/SP/G                  HT/PER
                 (F)     (DEG/KT/KT) (MB)    (MI)  (FT/S)
CALUMET HARBOR    35     210/ 10/ 13 1010.3R
MICHIGAN CITY     36     190/ 14/ 16   N/A
BURNS HARBOR      36     200/ 19/ 28 1011.9R
SAINT JOSEPH      35     210/ 12/ 15 1011.5

$$
&&




USA.gov is the U.S. government's official web portal to all federal, state and local government web resources and services.